period_start,C,m1,H,J0,J1,J2,J3,J4,J5,JA,JB,JC,JD,JJ,JK,JN,#
2015-05-14 00:03:58,0.01,1.10,0.00,23.22,27.13,29.99,4.76,27.57,1009.75,2034.99,2904.00,3066.02,3235.03,350.18,345.27,23.46,0000 0000 0000 0000 000000
2015-05-14 00:09:00,0.00,1.10,0.00,23.20,27.12,29.97,4.84,27.57,1009.78,2034.99,2903.91,3066.00,3235.00,350.20,345.35,23.49,0000 0000 0000 0000 000000
2015-05-14 00:14:01,0.03,1.10,0.00,23.18,27.12,29.94,4.68,27.56,1009.78,2034.99,2903.14,3065.98,3234.93,349.62,344.90,23.52,0000 0000 0000 0000 000000
2015-05-14 00:19:02,0.04,1.10,0.00,23.16,27.12,29.96,4.77,27.56,1009.78,2034.99,2902.98,3065.67,3234.34,349.46,344.77,23.55,0000 0000 0000 0000 000000
2015-05-14 00:24:03,0.04,1.10,0.00,23.13,27.12,29.95,4.75,27.63,1009.78,2034.99,2902.57,3065.12,3234.02,350.11,345.30,23.58,0000 0000 0000 0000 000000
2015-05-14 00:29:04,0.01,1.10,0.00,23.12,27.12,29.96,4.78,27.66,1009.78,2034.99,2902.03,3065.01,3233.98,349.89,345.18,23.60,0000 0000 0000 0000 000000
2015-05-14 00:34:06,0.00,1.10,0.00,23.12,27.11,29.94,4.80,27.74,1009.78,2034.99,2901.98,3065.00,3233.90,349.88,345.24,23.63,0000 0000 0000 0000 000000
2015-05-14 00:39:07,0.03,1.10,0.00,23.12,27.10,29.95,4.74,27.80,1009.78,2034.99,2901.57,3064.99,3233.74,349.03,344.20,23.66,0000 0000 0000 0000 000000
2015-05-14 00:44:08,0.04,1.10,0.00,23.12,27.10,29.93,4.77,27.69,1009.78,2034.99,2901.01,3064.78,3233.03,350.27,345.57,23.69,0000 0000 0000 0000 000000
2015-05-14 00:49:10,0.04,1.10,0.00,23.13,27.10,29.93,4.77,27.53,1009.78,2034.99,2900.63,3064.11,3233.00,349.89,345.02,23.72,0000 0000 0000 0000 000000
2015-05-14 00:54:11,0.01,1.10,0.00,23.15,27.10,29.95,4.73,27.67,1009.78,2034.99,2900.03,3064.01,3232.95,349.57,344.89,23.75,0000 0000 0000 0000 000000
2015-05-14 00:59:12,0.03,1.11,0.00,23.17,27.10,29.93,4.80,27.77,1009.78,2034.99,2899.82,3064.00,3232.32,349.92,345.07,23.78,0000 0000 0000 0000 000000
2015-05-14 01:04:14,0.02,1.11,0.00,23.19,27.10,29.92,4.74,27.56,1009.81,2034.99,2899.11,3063.96,3232.01,349.94,344.80,23.81,0000 0000 0000 0000 000000
2015-05-14 01:09:15,0.03,1.11,0.00,23.21,27.10,29.93,4.72,27.57,1010.01,2035.00,2898.96,3063.55,3231.98,349.65,345.09,23.84,0000 0000 0000 0000 000000
2015-05-14 01:14:16,0.04,1.11,0.00,23.22,27.10,29.94,4.78,27.52,1010.25,2035.01,2898.30,3063.04,3231.74,350.06,345.40,23.87,0000 0000 0000 0000 000000
2015-05-14 01:19:17,0.02,1.11,0.00,23.22,27.10,29.93,4.70,27.55,1010.27,2035.01,2898.00,3063.00,3231.10,349.52,344.78,23.90,0000 0000 0000 0000 000000
2015-05-14 01:24:19,0.01,1.11,0.00,23.25,27.10,29.92,4.74,27.59,1010.27,2035.00,2897.85,3062.94,3231.00,349.95,345.05,23.93,0000 0000 0000 0000 000000
2015-05-14 01:29:20,0.06,1.11,0.00,23.27,27.10,29.91,4.70,27.61,1010.27,2035.00,2897.21,3062.53,3230.71,350.08,345.19,23.96,0000 0000 0000 0000 000000
2015-05-14 01:34:21,0.03,1.11,0.00,23.27,27.10,29.93,4.72,27.62,1010.27,2035.00,2897.00,3062.05,3230.05,350.02,345.34,23.99,0000 0000 0000 0000 000000
2015-05-14 01:39:22,0.02,1.11,0.00,23.27,27.10,29.92,4.73,27.73,1010.28,2035.00,2896.63,3061.98,3229.95,349.97,345.04,24.02,0000 0000 0000 0000 000000
2015-05-14 01:44:23,0.04,1.11,0.00,23.29,27.10,29.92,4.71,27.68,1010.27,2035.00,2896.01,3061.78,3229.37,349.58,344.87,24.04,0000 0000 0000 0000 000000
2015-05-14 01:49:25,0.03,1.12,0.00,23.29,27.10,29.92,4.73,27.61,1010.28,2035.00,2895.94,3061.23,3229.04,349.89,345.12,24.07,0000 0000 0000 0000 000000
2015-05-14 01:54:26,0.03,1.12,0.00,23.30,27.10,29.94,4.75,27.63,1010.28,2035.00,2895.16,3061.01,3229.00,350.27,345.33,24.10,0000 0000 0000 0000 000000
2015-05-14 01:59:27,0.00,1.12,0.00,23.30,27.10,29.94,4.77,27.83,1010.28,2035.00,2894.99,3060.99,3228.89,350.16,345.41,24.13,0000 0000 0000 0000 000000
2015-05-14 02:04:29,0.04,1.12,0.00,23.29,27.11,29.93,4.68,27.81,1010.30,2035.00,2894.48,3060.97,3228.28,349.15,344.28,24.16,0000 0000 0000 0000 000000
2015-05-14 02:09:30,0.04,1.12,0.00,23.27,27.11,29.95,4.75,27.84,1010.29,2035.00,2894.03,3060.55,3228.02,349.87,345.06,24.19,0000 0000 0000 0000 000000
2015-05-14 02:14:31,0.03,1.12,0.00,23.30,27.12,29.95,4.75,27.67,1010.29,2035.00,2893.64,3060.04,3227.98,350.40,345.63,24.22,0000 0000 0000 0000 000000
2015-05-14 02:19:32,0.02,1.12,0.00,23.32,27.12,29.96,4.72,27.65,1010.36,2035.00,2893.02,3060.00,3227.51,349.85,345.03,24.25,0000 0000 0000 0000 000000
2015-05-14 02:24:34,0.01,1.12,0.00,23.33,27.12,29.96,4.80,27.80,1010.60,2035.00,2892.76,3059.96,3227.02,350.08,345.37,24.28,0000 0000 0000 0000 000000
2015-05-14 02:29:35,0.06,1.12,0.00,23.36,27.12,29.96,4.76,27.79,1010.73,2035.00,2892.07,3059.42,3226.99,350.64,345.81,24.31,0000 0000 0000 0000 000000
2015-05-14 02:34:36,0.02,1.12,0.00,23.36,27.12,29.95,4.75,27.98,1010.76,2035.00,2891.97,3059.02,3226.63,349.55,344.91,24.34,0000 0000 0000 0000 000000
2015-05-14 02:39:38,0.03,1.13,0.00,23.37,27.12,29.95,4.74,27.98,1010.76,2035.00,2891.51,3059.00,3226.39,350.03,345.25,24.37,0000 0000 0000 0000 000000
2015-05-14 02:44:39,0.02,1.13,0.00,23.39,27.12,29.94,4.74,27.84,1010.78,2035.00,2890.99,3058.84,3226.00,349.96,345.13,24.40,0000 0000 0000 0000 000000
2015-05-14 02:49:40,0.07,1.13,0.00,23.40,27.12,29.95,4.72,27.85,1010.90,2035.00,2890.26,3058.12,3225.65,349.88,345.20,24.42,0000 0000 0000 0000 000000
2015-05-14 02:54:41,0.01,1.13,0.00,23.41,27.12,29.95,4.75,27.77,1010.94,2035.00,2889.97,3058.00,3225.05,349.52,344.83,24.45,0000 0000 0000 0000 000000
2015-05-14 02:59:43,0.03,1.13,0.00,23.42,27.12,29.94,4.73,27.69,1011.12,2035.00,2889.52,3057.94,3224.99,350.19,345.57,24.48,0000 0000 0000 0000 000000
2015-05-14 03:04:44,0.04,1.13,0.00,23.44,27.13,29.94,4.76,27.73,1011.21,2035.00,2889.01,3057.50,3224.81,349.60,345.07,24.51,0000 0000 0000 0000 000000
2015-05-14 03:09:45,0.05,1.13,0.00,23.46,27.14,29.92,4.80,27.65,1011.24,2035.00,2888.65,3057.05,3224.15,350.01,345.38,24.54,0000 0000 0000 0000 000000
2015-05-14 03:14:47,0.01,1.13,0.00,23.50,27.15,29.95,4.74,27.74,1011.25,2035.00,2888.04,3056.99,3224.00,349.49,344.85,24.57,0000 0000 0000 0000 000000
2015-05-14 03:19:48,0.05,1.13,0.00,23.52,27.15,29.90,4.70,27.77,1011.26,2034.99,2887.81,3056.59,3223.62,349.54,344.89,24.60,0000 0000 0000 0000 000000
2015-05-14 03:24:49,0.05,1.14,0.00,23.52,27.15,29.90,4.73,27.79,1011.26,2034.99,2887.07,3056.04,3223.03,350.13,345.26,24.63,0000 0000 0000 0000 000000
2015-05-14 03:29:50,0.00,1.14,0.00,23.55,27.15,29.89,4.75,27.91,1011.26,2034.99,2886.99,3056.00,3222.99,349.81,344.98,24.66,0000 0000 0000 0000 000000
2015-05-14 03:34:51,0.03,1.14,0.00,23.56,27.17,29.87,4.76,27.85,1011.25,2034.99,2886.39,3055.99,3222.87,349.98,345.02,24.69,0000 0000 0000 0000 000000
2015-05-14 03:39:52,0.05,1.14,0.00,23.57,27.17,29.89,4.78,28.02,1011.26,2034.99,2886.00,3055.57,3222.48,350.25,345.35,24.72,0000 0000 0000 0000 000000
2015-05-14 03:44:54,0.05,1.14,0.00,23.59,27.17,29.87,4.75,27.80,1011.31,2034.99,2885.22,3055.01,3221.98,349.85,345.15,24.75,0000 0000 0000 0000 000000
2015-05-14 03:49:55,0.03,1.14,0.00,23.62,27.17,29.89,4.72,27.85,1011.66,2034.99,2884.97,3054.93,3221.47,349.33,344.75,24.78,0000 0000 0000 0000 000000
2015-05-14 03:54:56,0.06,1.14,0.00,23.62,27.19,29.88,4.76,27.81,1011.73,2034.98,2884.36,3054.24,3221.02,349.73,345.11,24.81,0000 0000 0000 0000 000000
2015-05-14 03:59:58,0.01,1.14,0.00,23.65,27.20,29.87,4.76,27.79,1011.73,2034.99,2884.00,3054.01,3220.96,350.15,345.25,24.84,0000 0000 0000 0000 000000
2015-05-14 04:04:59,0.04,1.14,0.00,23.68,27.20,29.87,4.69,27.86,1011.73,2034.97,2883.60,3053.97,3220.26,349.30,344.54,24.86,0000 0000 0000 0000 000000
2015-05-14 04:10:00,0.04,1.15,0.00,23.70,27.20,29.84,4.72,27.95,1011.73,2034.98,2883.07,3053.64,3220.01,349.22,344.44,24.89,0000 0000 0000 0000 000000
2015-05-14 04:15:01,0.02,1.15,0.00,23.70,27.21,29.85,4.75,27.86,1011.73,2034.99,2882.93,3053.07,3219.97,350.22,345.46,24.92,0000 0000 0000 0000 000000
2015-05-14 04:20:03,0.05,1.15,0.00,23.70,27.22,29.84,4.74,27.73,1011.92,2034.99,2882.21,3053.00,3219.40,350.01,345.41,24.95,0000 0000 0000 0000 000000
2015-05-14 04:25:04,0.03,1.15,0.00,23.72,27.22,29.84,4.73,27.69,1012.22,2034.97,2881.94,3052.68,3219.01,349.59,345.02,24.98,0000 0000 0000 0000 000000
2015-05-14 04:30:05,0.04,1.15,0.00,23.76,27.23,29.83,4.69,27.63,1012.23,2034.95,2881.18,3052.06,3218.90,350.07,345.57,25.01,0000 0000 0000 0000 000000
2015-05-14 04:35:07,0.00,1.15,0.00,23.78,27.24,29.85,4.72,27.83,1012.23,2034.89,2880.99,3051.99,3218.21,349.95,345.30,25.04,0000 0000 0000 0000 000000
2015-05-14 04:40:08,0.03,1.15,0.00,23.82,27.25,29.86,4.80,27.99,1012.22,2034.77,2880.48,3051.73,3218.05,350.55,345.44,25.07,0000 0000 0000 0000 000000
2015-05-14 04:45:10,0.06,1.15,0.00,23.83,27.25,29.86,4.69,27.82,1012.22,2034.85,2879.99,3051.09,3217.66,349.70,344.90,25.10,0000 0000 0000 0000 000000
2015-05-14 04:50:11,0.03,1.15,0.00,23.84,27.26,29.84,4.70,27.76,1012.22,2034.70,2879.44,3051.00,3217.04,349.72,344.98,25.13,0000 0000 0000 0000 000000
2015-05-14 04:55:12,0.00,1.16,0.00,23.84,27.27,29.86,4.75,27.77,1012.23,2034.61,2879.00,3050.74,3216.99,349.70,344.99,25.16,0000 0000 0000 0000 000000
2015-05-14 05:00:13,0.04,1.16,0.00,23.85,27.27,29.87,4.69,27.65,1012.24,2034.46,2878.74,3050.07,3216.37,349.92,345.12,25.19,0000 0000 0000 0000 000000
2015-05-14 05:05:14,0.01,1.16,0.00,23.87,27.29,29.86,4.79,27.63,1012.26,2034.50,2878.05,3050.00,3216.00,350.13,345.14,25.22,0000 0000 0000 0000 000000
2015-05-14 05:10:15,-0.02,1.16,0.00,23.87,27.30,29.87,4.68,27.67,1012.46,2034.26,2877.89,3049.79,3215.95,349.72,345.03,25.24,0000 0000 0000 0000 000000
2015-05-14 05:15:17,0.08,1.16,0.00,23.89,27.30,29.87,4.76,27.60,1012.70,2034.24,2877.15,3049.13,3215.43,349.88,345.37,25.27,0000 0000 0000 0000 000000
2015-05-14 05:20:18,-0.01,1.16,0.00,23.92,27.32,29.88,4.79,27.74,1012.71,2034.16,2876.99,3049.00,3215.01,350.17,345.45,25.30,0000 0000 0000 0000 000000
2015-05-14 05:25:19,0.01,1.16,0.00,23.95,27.32,29.87,4.75,27.74,1012.71,2034.10,2876.65,3048.93,3214.84,349.70,345.01,25.33,0000 0000 0000 0000 000000
2015-05-14 05:30:20,0.07,1.16,0.00,23.95,27.32,29.88,4.70,27.65,1012.71,2034.03,2876.04,3048.16,3214.08,350.36,345.76,25.36,0000 0000 0000 0000 000000
2015-05-14 05:35:22,-0.00,1.16,0.00,23.96,27.35,29.90,4.71,27.75,1012.71,2034.01,2875.98,3048.00,3213.99,349.65,344.98,25.39,0000 0000 0000 0000 000000
2015-05-14 05:40:23,0.04,1.16,0.00,23.97,27.35,29.90,4.68,27.75,1012.71,2034.01,2875.51,3047.97,3213.77,349.64,344.90,25.42,0000 0000 0000 0000 000000
2015-05-14 05:45:25,0.06,1.16,0.00,24.00,27.36,29.90,4.83,27.69,1012.72,2034.01,2875.00,3047.37,3213.08,350.43,345.62,25.45,0000 0000 0000 0000 000000
2015-05-14 05:50:26,0.02,1.16,0.00,24.01,27.37,29.93,4.75,27.81,1012.72,2034.00,2874.66,3047.02,3212.98,350.26,345.35,25.48,0000 0000 0000 0000 000000
2015-05-14 05:55:27,0.03,1.17,0.00,24.02,27.37,29.92,4.78,27.73,1012.74,2034.00,2874.02,3046.95,3212.37,350.44,345.64,25.51,0000 0000 0000 0000 000000
2015-05-14 06:00:29,0.07,1.17,0.00,24.03,27.39,29.95,4.73,27.76,1012.92,2034.00,2873.68,3046.27,3212.02,350.32,345.44,25.54,0000 0000 0000 0000 000000
2015-05-14 06:05:31,0.01,1.17,0.00,24.05,27.40,29.95,4.75,27.64,1013.18,2034.00,2873.04,3046.00,3211.98,350.09,345.56,25.57,0000 0000 0000 0000 000000
2015-05-14 06:10:32,0.06,1.17,0.00,24.07,27.40,29.95,4.72,27.60,1013.20,2034.00,2872.62,3045.79,3211.31,349.77,345.08,25.60,0000 0000 0000 0000 000000
2015-05-14 06:15:33,0.03,1.17,0.00,24.07,27.42,29.97,4.73,27.60,1013.20,2034.00,2872.01,3045.10,3211.00,349.79,345.21,25.63,0000 0000 0000 0000 000000
2015-05-14 06:20:35,0.02,1.17,0.00,24.10,27.42,29.98,4.70,27.66,1013.22,2034.00,2871.72,3044.99,3210.81,349.28,344.94,25.66,0000 0000 0000 0000 000000
2015-05-14 06:25:36,0.06,1.17,0.00,24.13,27.43,29.98,4.76,27.57,1013.42,2034.00,2871.04,3044.74,3210.10,350.27,345.72,25.68,0000 0000 0000 0000 000000
2015-05-14 06:30:37,0.02,1.18,0.00,24.15,27.45,29.99,4.73,27.60,1013.63,2033.99,2870.85,3044.10,3209.98,349.95,345.24,25.71,0000 0000 0000 0000 000000
2015-05-14 06:35:39,0.03,1.18,0.00,24.15,27.45,29.99,4.76,27.67,1013.69,2033.96,2870.14,3044.00,3209.47,350.00,345.34,25.74,0000 0000 0000 0000 000000
2015-05-14 06:40:40,0.05,1.18,0.00,24.17,27.46,30.00,4.72,27.68,1013.69,2033.93,2869.98,3043.60,3209.16,349.67,344.79,25.77,0000 0000 0000 0000 000000
2015-05-14 06:45:42,0.05,1.18,0.00,24.18,27.47,30.02,4.74,27.62,1013.69,2033.87,2869.25,3043.03,3208.64,350.06,345.52,25.80,0000 0000 0000 0000 000000
2015-05-14 06:50:43,0.00,1.18,0.00,24.20,27.47,30.02,4.67,27.61,1013.70,2033.80,2869.00,3043.00,3208.05,349.20,344.24,25.83,0000 0000 0000 0000 000000
2015-05-14 06:55:44,0.01,1.18,0.00,24.22,27.50,30.02,4.66,27.66,1013.73,2033.69,2868.76,3042.56,3207.99,349.82,345.10,25.86,0000 0000 0000 0000 000000
2015-05-14 07:00:46,0.05,1.18,0.00,24.22,27.50,30.03,4.76,27.50,1013.83,2033.69,2868.08,3042.07,3207.73,349.96,345.23,25.89,0000 0000 0000 0000 000000
2015-05-14 07:05:47,-0.02,1.18,0.00,24.22,27.51,30.05,4.75,27.56,1014.01,2033.39,2867.91,3041.99,3207.04,350.11,345.30,25.92,0000 0000 0000 0000 000000
2015-05-14 07:10:48,0.03,1.18,0.00,24.22,27.52,30.05,4.79,27.63,1014.14,2033.31,2867.18,3041.63,3206.96,350.10,345.60,25.95,0000 0000 0000 0000 000000
2015-05-14 07:15:50,0.04,1.18,0.00,24.24,27.52,30.07,4.80,27.54,1014.17,2033.10,2866.77,3041.02,3206.34,350.66,346.02,25.98,0000 0000 0000 0000 000000
2015-05-14 07:20:51,0.02,1.18,0.00,24.27,27.54,30.08,4.74,27.60,1014.18,2033.08,2866.06,3040.97,3206.01,349.86,345.22,26.01,0000 0000 0000 0000 000000
2015-05-14 07:25:52,0.04,1.18,0.00,24.31,27.55,30.09,4.69,27.52,1014.19,2033.04,2865.85,3040.38,3205.91,349.93,345.35,26.04,0000 0000 0000 0000 000000
2015-05-14 07:30:53,0.05,1.19,0.00,24.35,27.55,30.10,4.70,27.43,1014.26,2033.03,2865.08,3040.01,3205.19,349.74,345.13,26.07,0000 0000 0000 0000 000000
2015-05-14 07:35:54,0.00,1.19,0.00,24.37,27.57,30.10,4.74,27.65,1014.33,2033.02,2864.97,3040.00,3205.00,350.30,345.45,26.09,0000 0000 0000 0000 000000
2015-05-14 07:40:56,0.07,1.19,0.00,24.40,27.57,30.11,4.76,27.60,1014.45,2033.00,2864.29,3039.47,3204.73,350.33,345.42,26.12,0000 0000 0000 0000 000000
2015-05-14 07:45:57,0.03,1.19,0.00,24.43,27.59,30.12,4.72,27.56,1014.62,2033.01,2863.92,3039.02,3204.07,349.92,345.16,26.15,0000 0000 0000 0000 000000
2015-05-14 07:50:58,0.04,1.19,0.00,24.46,27.60,30.12,4.73,27.60,1014.64,2033.00,2863.19,3038.83,3203.99,350.30,345.61,26.18,0000 0000 0000 0000 000000
2015-05-14 07:56:00,0.06,1.19,0.00,24.49,27.61,30.11,4.70,27.65,1014.66,2033.00,2863.00,3038.11,3203.45,349.51,344.74,26.21,0000 0000 0000 0000 000000
2015-05-14 08:01:01,0.03,1.19,0.00,24.54,27.62,30.12,4.71,27.69,1014.66,2033.00,2862.41,3038.00,3203.00,349.60,344.84,26.24,0000 0000 0000 0000 000000
2015-05-14 08:06:02,0.03,1.19,0.00,24.57,27.63,30.13,4.70,27.57,1014.66,2033.00,2862.00,3037.66,3202.81,350.22,345.44,26.27,0000 0000 0000 0000 000000
2015-05-14 08:11:04,0.07,1.20,0.00,24.59,27.65,30.14,4.68,27.63,1014.68,2033.00,2861.40,3037.06,3202.11,350.03,345.26,26.30,0000 0000 0000 0000 000000
2015-05-14 08:16:05,0.01,1.20,0.00,24.60,27.65,30.15,4.72,27.55,1014.73,2032.99,2861.00,3036.98,3201.98,350.13,345.20,26.33,0000 0000 0000 0000 000000
2015-05-14 08:21:06,0.09,1.20,0.00,24.61,27.67,30.16,4.78,27.51,1014.92,2032.99,2860.38,3036.38,3201.36,350.27,345.43,26.36,0000 0000 0000 0000 000000
2015-05-14 08:26:08,0.01,1.20,0.00,24.62,27.67,30.17,4.76,27.59,1015.10,2032.99,2860.01,3036.01,3201.01,350.34,345.57,26.39,0000 0000 0000 0000 000000
2015-05-14 08:31:09,0.02,1.20,0.00,24.62,27.70,30.18,4.74,27.55,1015.11,2032.98,2859.58,3035.98,3200.91,349.91,345.23,26.42,0000 0000 0000 0000 000000
2015-05-14 08:36:10,0.05,1.20,0.00,24.64,27.70,30.20,4.77,27.61,1015.11,2032.93,2859.02,3035.38,3200.24,350.38,345.68,26.45,0000 0000 0000 0000 000000
2015-05-14 08:41:11,0.04,1.20,0.00,24.64,27.71,30.21,4.73,27.60,1015.15,2032.86,2858.58,3035.01,3200.02,350.04,345.38,26.48,0000 0000 0000 0000 000000
2015-05-14 08:46:13,0.04,1.20,0.00,24.65,27.72,30.23,4.69,27.56,1015.14,2032.92,2858.02,3034.87,3199.53,349.66,345.19,26.50,0000 0000 0000 0000 000000
2015-05-14 08:51:14,0.00,1.21,0.00,24.65,27.73,30.26,4.73,27.69,1015.15,2032.71,2857.70,3034.17,3199.02,349.67,345.20,26.53,0000 0000 0000 0000 000000
2015-05-14 08:56:15,0.02,1.21,0.00,24.65,27.75,30.27,4.70,27.57,1015.16,2032.67,2857.03,3034.00,3198.99,349.47,344.74,26.56,0000 0000 0000 0000 000000
2015-05-14 09:01:16,0.03,1.21,0.00,24.67,27.75,30.29,4.73,27.53,1015.25,2032.33,2856.65,3033.68,3198.38,349.84,345.04,26.59,0000 0000 0000 0000 000000
2015-05-14 09:06:17,0.03,1.21,0.00,24.66,27.76,30.29,4.72,27.59,1015.56,2032.28,2856.02,3033.05,3198.01,350.11,345.45,26.62,0000 0000 0000 0000 000000
2015-05-14 09:11:18,-0.01,1.21,0.00,24.65,27.77,30.30,4.66,27.63,1015.59,2032.13,2855.85,3032.99,3197.91,349.35,344.70,26.65,0000 0000 0000 0000 000000
2015-05-14 09:16:19,0.06,1.21,0.00,24.65,27.77,30.31,4.80,27.51,1015.49,2032.08,2855.09,3032.70,3197.21,350.48,345.96,26.68,0000 0000 0000 0000 000000
2015-05-14 09:21:21,0.02,1.21,0.00,24.65,27.78,30.31,4.66,27.46,1015.40,2032.05,2854.83,3032.05,3197.00,349.77,345.26,26.71,0000 0000 0000 0000 000000
2015-05-14 09:26:22,0.04,1.21,0.00,24.64,27.80,30.32,4.69,27.57,1015.48,2032.07,2854.05,3031.99,3196.77,350.22,345.81,26.74,0000 0000 0000 0000 000000
2015-05-14 09:31:23,0.03,1.21,0.00,24.64,27.80,30.32,4.65,27.59,1015.58,2032.04,2853.88,3031.67,3196.07,349.51,344.94,26.77,0000 0000 0000 0000 000000
2015-05-14 09:36:24,0.04,1.21,0.00,24.64,27.80,30.32,4.76,27.64,1015.60,2032.04,2853.17,3031.10,3196.00,349.68,345.30,26.80,0000 0000 0000 0000 000000
2015-05-14 09:41:25,0.02,1.21,0.00,24.63,27.80,30.32,4.69,27.49,1015.55,2032.01,2852.97,3030.99,3195.55,349.85,345.19,26.83,0000 0000 0000 0000 000000
2015-05-14 09:46:26,0.07,1.22,0.00,24.61,27.82,30.33,4.76,27.68,1015.62,2032.02,2852.24,3030.52,3195.03,349.99,345.53,26.86,0000 0000 0000 0000 000000
2015-05-14 09:51:28,0.02,1.22,0.00,24.60,27.82,30.34,4.78,27.54,1015.64,2032.01,2851.98,3030.02,3194.97,349.98,345.56,26.89,0000 0000 0000 0000 000000
2015-05-14 09:56:29,0.04,1.22,0.00,24.58,27.82,30.35,4.79,27.68,1015.64,2032.00,2851.62,3030.00,3194.31,349.53,345.04,26.91,0000 0000 0000 0000 000000
2015-05-14 10:01:31,0.05,1.22,0.00,24.57,27.82,30.36,4.78,27.51,1015.65,2032.00,2851.02,3029.55,3194.01,350.17,345.71,26.94,0000 0000 0000 0000 000000
2015-05-14 10:06:32,0.04,1.22,0.00,24.57,27.83,30.36,4.75,27.52,1015.67,2032.00,2850.60,3029.04,3193.75,350.15,345.54,26.97,0000 0000 0000 0000 000000
2015-05-14 10:11:33,0.02,1.22,0.00,24.59,27.84,30.36,4.81,27.56,1015.85,2032.00,2850.03,3028.99,3193.15,350.48,345.65,27.00,0000 0000 0000 0000 000000
2015-05-14 10:16:35,0.03,1.22,0.00,24.60,27.85,30.34,4.74,27.63,1016.09,2032.00,2849.93,3028.66,3193.00,350.23,345.87,27.03,0000 0000 0000 0000 000000
2015-05-14 10:21:36,0.05,1.22,0.00,24.60,27.85,30.31,4.78,27.64,1016.13,2032.00,2849.22,3028.05,3192.85,349.85,345.54,27.06,0000 0000 0000 0000 000000
2015-05-14 10:26:38,0.02,1.22,0.00,24.62,27.85,30.28,4.70,27.58,1016.13,2032.00,2848.98,3027.99,3192.12,349.51,345.18,27.09,0000 0000 0000 0000 000000
2015-05-14 10:31:39,0.04,1.23,0.00,24.62,27.85,30.26,4.75,27.47,1016.13,2032.00,2848.42,3027.78,3192.00,349.83,345.31,27.12,0000 0000 0000 0000 000000
2015-05-14 10:36:40,0.03,1.23,0.00,24.64,27.87,30.25,4.75,27.70,1016.13,2032.00,2848.01,3027.11,3191.97,350.25,345.89,27.15,0000 0000 0000 0000 000000
2015-05-14 10:41:41,0.05,1.23,0.00,24.65,27.87,30.25,4.71,27.52,1016.13,2032.00,2847.41,3026.99,3191.28,349.87,345.44,27.18,0000 0000 0000 0000 000000
2015-05-14 10:46:42,0.03,1.23,0.00,24.65,27.87,30.24,4.80,27.57,1016.16,2032.00,2847.00,3026.70,3190.98,350.17,345.76,27.21,0000 0000 0000 0000 000000
2015-05-14 10:51:44,0.07,1.23,0.00,24.66,27.88,30.25,4.77,27.55,1016.31,2032.00,2846.52,3026.06,3190.54,349.92,345.56,27.24,0000 0000 0000 0000 000000
2015-05-14 10:56:45,0.01,1.23,0.00,24.67,27.90,30.26,4.76,27.48,1016.53,2031.99,2846.01,3025.96,3190.02,350.01,345.72,27.27,0000 0000 0000 0000 000000
2015-05-14 11:01:46,0.06,1.23,0.00,24.70,27.90,30.26,4.72,27.61,1016.60,2031.99,2845.62,3025.45,3189.87,349.87,345.66,27.30,0000 0000 0000 0000 000000
2015-05-14 11:06:47,0.04,1.24,0.00,24.73,27.90,30.29,4.78,27.48,1016.61,2031.98,2845.04,3025.04,3189.22,350.12,345.65,27.32,0000 0000 0000 0000 000000
2015-05-14 11:11:49,0.00,1.24,0.00,24.75,27.92,30.29,4.74,27.46,1016.62,2031.98,2844.94,3025.00,3189.00,350.46,345.99,27.35,0000 0000 0000 0000 000000
2015-05-14 11:16:50,0.07,1.24,0.00,24.78,27.92,30.30,4.70,27.43,1016.62,2031.97,2844.15,3024.59,3188.74,349.78,345.38,27.38,0000 0000 0000 0000 000000
2015-05-14 11:21:51,0.03,1.24,0.00,24.79,27.93,30.32,4.70,27.50,1016.62,2031.94,2843.93,3024.03,3188.05,349.81,345.66,27.41,0000 0000 0000 0000 000000
2015-05-14 11:26:53,0.02,1.24,0.00,24.80,27.95,30.34,4.69,27.48,1016.62,2031.90,2843.19,3023.97,3187.97,349.77,345.28,27.44,0000 0000 0000 0000 000000
2015-05-14 11:31:54,0.06,1.24,0.00,24.80,27.95,30.36,4.75,27.32,1016.62,2031.90,2842.98,3023.46,3187.46,350.36,345.93,27.47,0000 0000 0000 0000 000000
2015-05-14 11:36:55,-0.01,1.24,0.00,24.80,27.95,30.39,4.66,27.69,1016.62,2031.71,2842.52,3023.02,3187.07,349.33,344.84,27.50,0000 0000 0000 0000 000000
2015-05-14 11:41:57,-0.01,1.24,0.00,24.82,27.96,30.41,4.68,27.52,1016.62,2031.53,2842.01,3022.94,3186.91,349.50,345.06,27.53,0000 0000 0000 0000 000000
2015-05-14 11:46:58,0.09,1.24,0.00,24.80,27.97,30.44,4.74,27.55,1016.62,2031.44,2841.39,3022.28,3186.19,350.36,345.96,27.56,0000 0000 0000 0000 000000
2015-05-14 11:51:59,0.00,1.24,0.00,24.79,27.97,30.46,4.74,27.47,1016.62,2031.52,2841.01,3022.02,3186.01,349.22,344.82,27.59,0000 0000 0000 0000 000000
2015-05-14 11:57:00,0.05,1.24,0.00,24.76,27.97,30.49,4.73,27.57,1016.62,2031.50,2840.72,3021.99,3185.96,349.67,345.31,27.62,0000 0000 0000 0000 000000
2015-05-14 12:02:02,0.05,1.25,0.00,24.73,27.97,30.50,4.69,27.55,1016.62,2031.53,2840.07,3021.63,3185.33,349.50,345.20,27.65,0000 0000 0000 0000 000000
2015-05-14 12:07:03,-0.00,1.25,0.00,24.70,27.97,30.50,4.75,27.57,1016.72,2031.30,2839.90,3021.04,3185.00,350.17,345.97,27.68,0000 0000 0000 0000 000000
2015-05-14 12:12:04,0.01,1.25,0.00,24.65,27.97,30.52,4.75,27.49,1017.03,2031.21,2839.16,3020.98,3184.84,350.07,345.69,27.71,0000 0000 0000 0000 000000
2015-05-14 12:17:06,0.04,1.25,0.00,24.61,27.97,30.53,4.78,27.52,1017.01,2031.10,2838.95,3020.49,3184.09,349.88,345.83,27.73,0000 0000 0000 0000 000000
2015-05-14 12:22:07,0.04,1.25,0.00,24.57,27.97,30.55,4.73,27.52,1016.83,2031.09,2838.21,3020.05,3184.00,349.57,345.48,27.76,0000 0000 0000 0000 000000
2015-05-14 12:27:08,0.01,1.25,0.00,24.55,27.97,30.53,4.72,27.55,1016.64,2031.10,2838.00,3019.99,3183.88,349.81,345.88,27.79,0000 0000 0000 0000 000000
2015-05-14 12:32:10,0.06,1.25,0.00,24.52,27.97,30.54,4.79,27.60,1016.71,2031.05,2837.37,3019.78,3183.16,350.44,346.30,27.82,0000 0000 0000 0000 000000
2015-05-14 12:37:11,0.03,1.25,0.00,24.51,27.97,30.57,4.72,27.77,1017.02,2031.04,2837.01,3019.16,3183.03,349.88,345.97,27.85,0000 0000 0000 0000 000000
2015-05-14 12:42:12,0.03,1.25,0.00,24.49,27.97,30.58,4.74,27.55,1017.09,2031.09,2836.64,3019.00,3182.95,350.30,346.46,27.88,0000 0000 0000 0000 000000
2015-05-14 12:47:13,0.03,1.25,0.00,24.48,27.97,30.57,4.73,27.57,1017.08,2031.07,2836.04,3018.97,3182.37,349.63,345.75,27.91,0000 0000 0000 0000 000000
2015-05-14 12:52:14,0.04,1.26,0.00,24.47,27.96,30.57,4.75,27.54,1017.07,2031.13,2835.96,3018.67,3182.01,349.57,345.65,27.94,0000 0000 0000 0000 000000
2015-05-14 12:57:15,0.05,1.26,0.00,24.47,27.95,30.57,4.66,27.58,1017.02,2031.08,2835.23,3018.03,3181.96,349.46,345.58,27.97,0000 0000 0000 0000 000000
2015-05-14 13:02:17,0.02,1.26,0.00,24.45,27.95,30.54,4.83,27.70,1017.09,2031.13,2835.00,3018.00,3181.47,350.59,346.50,28.00,0000 0000 0000 0000 000000